[[{"header":{"parameterUnit":"m.s-1","parameterCategory":1,"la1":30.2991,"la2":30.254,"lo1":-89.0895,"lo2":-89.0444,"dy":0.0017,"dx":0.0017,"nx":28,"ny":28,"refTime":"2024-02-19T03:00:00:Z","depth":0,"parameterNumber":2,"parameterNumberName":"U-component_of_WINDS"},"data":[0,0,0,0,0,0,0,0,0,0,0,0,0,0,0,0,0,0,0,0,0,0,0,0,0,0,0,0,0,0,0,0,0,0,0,0,0,0,0,0,0,0,0,0,0,0,0,0,0,0,0,0,0,0,0,0,0,0,2.1321,2.1323,0,2.1464,2.1465,2.1467,2.1485,2.1484,2.1482,2.1481,2.1626,2.1631,2.1636,0,0,0,0,0,0,0,0,0,0,0,0,0,2.1062,2.1067,2.1321,2.1323,2.1325,2.1463,2.1465,2.1467,2.1485,2.1484,2.1482,2.148,2.1624,2.163,2.1637,0,0,0,0,0,0,0,0,0,0,0,0,0,2.1187,2.1068,2.1321,2.1351,2.1355,2.1463,2.1465,2.1468,2.1486,2.1483,2.1481,2.1479,2.1622,2.163,2.1637,2.1726,0,0,2.1661,2.1664,0,0,0,0,0,0,0,0,2.1179,2.1196,2.1344,2.1349,2.1353,2.1454,2.1427,2.1554,2.1486,2.1436,2.1481,2.1478,2.1571,2.1582,2.1614,2.1733,2.1739,2.1662,2.1666,2.167,2.1672,0,0,0,0,0,0,0,2.1171,2.119,2.1378,2.1346,2.1352,2.1356,2.1371,2.1451,2.1513,2.144,2.1442,2.1458,2.1573,2.1606,2.1617,2.1741,2.1661,2.1668,2.1673,2.1676,2.1937,2.1939,0,0,0,0,0,0,2.1157,2.1183,2.1373,2.1382,2.126,2.1362,2.1379,2.1424,2.1512,2.1524,2.146,2.1459,2.1594,2.1608,2.1622,2.173,2.167,2.1677,2.1681,2.1935,2.1937,2.194,0,0,0,0,0,0,2.1151,2.1174,2.1367,2.1283,2.1308,2.1369,2.1419,2.1428,2.1462,2.1527,2.1538,2.1483,2.1593,2.1611,2.1699,2.1735,2.168,2.1687,2.1932,2.1936,2.1939,2.1946,0,0,0,0,0,0,2.1144,2.1172,2.1207,2.1284,2.1312,2.1443,2.1421,2.1432,2.1475,2.1475,2.1552,2.1563,2.1593,2.1688,2.1707,2.1745,2.1693,2.1929,2.1934,2.1938,2.1943,2.195,2.1955,0,0,0,0,0,2.1135,2.1204,2.1209,2.1232,2.1358,2.1445,2.1462,2.1495,2.1478,2.1513,2.1554,2.156,2.1728,2.1697,2.1719,2.1759,2.1927,2.1932,2.1937,2.1941,2.1948,2.1955,0,0,0,0,0,0,2.1131,2.1215,2.1221,2.1318,2.1374,2.1448,2.1494,2.1503,2.1565,2.1562,2.1601,2.1618,2.1704,2.1741,2.1704,2.1848,2.1826,2.1835,2.1821,2.1829,2.1835,2.1823,2.17,0,0,0,0,0,2.1141,2.1206,2.1276,2.1354,2.1382,2.1433,2.1472,2.1493,2.1553,2.1577,2.1625,2.1683,2.1748,2.1791,2.1855,2.1949,2.1964,2.1987,2.1993,2.1997,2.2005,2.2054,2.2064,2.1957,2.1957,2.1957,0,0,2.1164,2.1218,2.1256,2.1355,2.1401,2.1465,2.1453,2.1523,2.1571,2.1588,2.1673,2.171,2.1777,2.1867,2.1909,2.19,2.2038,2.2004,2.2007,2.2013,2.2061,2.2071,2.208,2.196,2.196,2.1959,0,0,2.1237,2.1285,2.1354,2.14,2.147,2.1503,2.1519,2.1591,2.1616,2.1703,2.1716,2.1773,2.1886,2.1932,2.197,2.2057,2.2063,2.2077,2.2108,2.2155,2.2164,2.2171,2.22,2.221,2.2084,2.2084,2.2084,0,2.1256,2.1355,2.1389,2.1457,2.1499,2.1516,2.1585,2.1628,2.1715,2.1743,2.1732,2.1871,2.1918,2.2017,2.2038,2.2069,2.2088,2.2068,2.216,2.2168,2.2175,2.2203,2.2214,2.2085,2.2085,2.2085,2.2085,0,2.1373,2.1441,2.1489,2.1571,2.1618,2.1687,2.1729,2.1773,2.1788,2.1822,2.1908,2.1964,2.2038,2.2063,2.208,2.2165,2.2156,2.2152,2.213,2.2186,2.2213,2.2224,2.2087,2.2086,2.2086,2.2086,0,0,2.145,2.1548,2.1565,2.1601,2.1677,2.173,2.1798,2.187,2.1905,2.1964,2.2021,2.2114,2.211,2.2153,2.2175,2.2216,2.2278,2.2207,2.2209,2.2216,2.2372,2.2374,2.2386,2.2283,2.2286,2.2287,2.2366,0,2.1531,2.1653,2.1684,2.1787,2.1849,2.1864,2.1923,2.1976,2.2008,2.2064,2.21,2.2165,2.2155,2.218,2.2223,2.2262,2.231,2.2257,2.2335,2.2337,2.2316,2.24,2.2403,2.2475,2.2377,2.2379,2.238,0,2.1642,2.1701,2.181,2.1876,2.1903,2.1955,2.2022,2.2076,2.2135,2.2155,2.2202,2.2219,2.2288,2.2263,2.2359,2.2322,2.2355,2.2379,2.2382,2.239,2.2361,2.2408,2.2499,2.2508,2.2397,2.2396,2.2394,0,2.1684,2.1792,2.187,2.1901,2.198,2.2015,2.205,2.2107,2.2147,2.2205,2.2231,2.2297,2.2333,2.2382,2.2416,2.2395,2.2507,2.2486,2.2525,2.2524,2.2547,2.2545,2.2642,2.2571,2.2571,2.2571,2.2571,0,2.177,2.1836,2.1889,2.1937,2.201,2.2044,2.2116,2.215,2.22,2.2254,2.2272,2.2322,2.2364,2.2419,2.2446,2.2519,2.2536,2.2553,2.2559,2.2551,2.2548,2.2572,2.2568,2.2574,2.2573,2.2572,2.2572,0,2.183,2.1869,2.1955,2.2021,2.2039,2.209,2.2147,2.2193,2.2225,2.2293,2.231,2.236,2.2426,2.2464,2.2548,2.2565,2.2646,2.2651,2.2626,2.2628,2.2664,2.2659,2.2779,2.2796,2.2715,2.2716,2.2716,0,2.1882,2.1932,2.2003,2.204,2.2075,2.2135,2.2175,2.221,2.2251,2.232,2.2357,2.2424,2.2479,2.2583,2.2626,2.2689,2.2695,2.2732,2.2704,2.2693,2.2693,2.2689,2.2693,2.2737,2.2737,2.2738,2.2738,0,2.1969,2.1985,2.2042,2.2106,2.2153,2.2205,2.2257,2.2286,2.2329,2.2374,2.2441,2.2483,2.2567,2.2632,2.2698,2.2732,2.2742,2.2747,2.2759,2.275,2.2733,2.274,2.2637,2.2744,2.2743,2.2743,2.2743,2.2742,2.2025,2.2069,2.2125,2.2188,2.223,2.2277,2.2323,2.2359,2.2415,2.2486,2.2503,2.2572,2.2627,2.2716,2.2752,2.2806,2.28,2.2818,2.2822,2.2825,2.2825,2.2725,2.2819,2.2819,2.2818,2.2818,2.2818,0,2.2111,2.2147,2.2205,2.2275,2.2323,2.2328,2.2384,2.2424,2.2485,2.2535,2.2588,2.2663,2.2725,2.2773,2.2836,2.287,2.2876,2.2885,2.2883,2.289,2.2829,2.2811,2.2879,2.2879,2.2879,2.2879,2.2879,2.2879,2.2162,2.2236,2.2258,2.2352,2.2387,2.2455,2.2486,2.2529,2.2569,2.2652,2.2703,2.2733,2.2781,2.2848,2.2905,2.2917,2.2938,2.2947,2.296,2.2901,2.2895,2.2888,2.2872,2.2952,2.2952,2.3016,2.3017,2.3017]},{"header":{"parameterUnit":"m.s-1","parameterCategory":1,"la1":30.2991,"la2":30.254,"lo1":-89.0895,"lo2":-89.0444,"dy":0.0017,"dx":0.0017,"nx":28,"ny":28,"refTime":"2024-02-19T03:00:00:Z","depth":0,"parameterNumber":3,"parameterNumberName":"V-component_of_WINDS"},"data":[0,0,0,0,0,0,0,0,0,0,0,0,0,0,0,0,0,0,0,0,0,0,0,0,0,0,0,0,0,0,0,0,0,0,0,0,0,0,0,0,0,0,0,0,0,0,0,0,0,0,0,0,0,0,0,0,0,0,1.2699,1.2698,0,1.2559,1.2557,1.2555,1.2449,1.2448,1.2447,1.2446,1.2298,1.2295,1.2292,0,0,0,0,0,0,0,0,0,0,0,0,0,1.2871,1.2869,1.27,1.2698,1.2696,1.2559,1.2557,1.2555,1.2449,1.2448,1.2446,1.2445,1.2299,1.2296,1.2292,0,0,0,0,0,0,0,0,0,0,0,0,0,1.277,1.2868,1.27,1.2627,1.2619,1.2559,1.2557,1.2554,1.2449,1.2448,1.2446,1.2445,1.2301,1.2296,1.2292,1.2293,0,0,1.2278,1.2276,0,0,0,0,0,0,0,0,1.2776,1.2764,1.2639,1.2632,1.2623,1.252,1.2563,1.2467,1.2449,1.2513,1.2446,1.2444,1.2373,1.2362,1.2339,1.2286,1.228,1.2277,1.2275,1.2273,1.2271,0,0,0,0,0,0,0,1.2783,1.2769,1.2644,1.2637,1.2627,1.2599,1.2583,1.2544,1.2453,1.2508,1.25,1.2485,1.2368,1.2344,1.2335,1.2277,1.2278,1.2274,1.2271,1.2269,1.2214,1.2215,0,0,0,0,0,0,1.2802,1.2776,1.2648,1.2639,1.2697,1.2597,1.2579,1.2554,1.2453,1.2436,1.2486,1.248,1.2352,1.234,1.2329,1.2321,1.2273,1.2269,1.2266,1.2213,1.2214,1.2215,0,0,0,0,0,0,1.2806,1.2792,1.2654,1.2705,1.2686,1.2596,1.2568,1.2552,1.2528,1.2437,1.2419,1.2478,1.2351,1.2336,1.2302,1.2315,1.2266,1.2262,1.2211,1.2213,1.2215,1.2308,0,0,0,0,0,0,1.2812,1.2794,1.2795,1.2706,1.2683,1.2631,1.2569,1.255,1.2521,1.2512,1.2425,1.2409,1.2348,1.2309,1.2298,1.2308,1.2259,1.2209,1.2212,1.2214,1.2303,1.2313,1.2321,0,0,0,0,0,1.2818,1.2827,1.2796,1.2781,1.2683,1.2632,1.2619,1.255,1.2522,1.2521,1.2462,1.2412,1.2316,1.2307,1.2293,1.2302,1.2208,1.2211,1.2214,1.2299,1.2311,1.2321,0,0,0,0,0,0,1.292,1.2814,1.2778,1.2759,1.2705,1.2614,1.2611,1.2565,1.2517,1.2511,1.2425,1.2407,1.2381,1.2338,1.233,1.2295,1.2255,1.2255,1.2325,1.2335,1.2344,1.2355,1.2255,0,0,0,0,0,1.294,1.2909,1.2818,1.2809,1.2784,1.2703,1.2678,1.2629,1.2569,1.2546,1.2485,1.2428,1.2384,1.2357,1.2312,1.2296,1.2274,1.2295,1.2304,1.2312,1.2313,1.2298,1.2305,1.2225,1.2225,1.2225,0,0,1.2981,1.292,1.2905,1.2828,1.2781,1.2748,1.2684,1.2654,1.2628,1.2541,1.2505,1.2458,1.2388,1.2363,1.2349,1.2326,1.233,1.2315,1.2322,1.2319,1.2301,1.2309,1.2316,1.2227,1.2226,1.2226,0,0,1.3039,1.2991,1.2977,1.2931,1.286,1.2805,1.2802,1.2717,1.2682,1.2645,1.2578,1.2545,1.2473,1.2425,1.2392,1.2429,1.2379,1.2416,1.2462,1.2449,1.2455,1.246,1.2471,1.2476,1.2417,1.2418,1.2418,0,1.31,1.305,1.2976,1.2948,1.2915,1.2835,1.2819,1.2777,1.2695,1.2673,1.2649,1.2554,1.2502,1.2462,1.2471,1.2447,1.2439,1.2426,1.246,1.2465,1.2468,1.2478,1.2482,1.2423,1.2422,1.2421,1.2421,0,1.3126,1.3092,1.3089,1.3012,1.2978,1.2957,1.2877,1.2852,1.2805,1.2752,1.2713,1.2647,1.2586,1.2573,1.2528,1.2526,1.2514,1.2477,1.2434,1.2482,1.2489,1.2493,1.2429,1.2428,1.2426,1.2425,0,0,1.3246,1.3126,1.3126,1.3089,1.3003,1.2975,1.2948,1.2889,1.2867,1.2812,1.2786,1.2725,1.2689,1.265,1.2598,1.2586,1.2617,1.2549,1.2546,1.2562,1.2608,1.2637,1.2642,1.2583,1.2584,1.2584,1.2613,0,1.329,1.3239,1.3171,1.3142,1.3108,1.303,1.3006,1.2949,1.2898,1.286,1.2803,1.2761,1.2717,1.2693,1.2678,1.2617,1.2624,1.2613,1.2556,1.2555,1.2575,1.2646,1.2677,1.2708,1.2616,1.2616,1.2617,0,1.3335,1.3284,1.3253,1.3167,1.315,1.313,1.3068,1.3034,1.2967,1.293,1.2887,1.2829,1.2794,1.2757,1.2706,1.27,1.2672,1.2638,1.2637,1.2628,1.2589,1.2638,1.2716,1.2721,1.2621,1.2621,1.262,0,1.3424,1.3347,1.3317,1.3288,1.3188,1.3175,1.3132,1.3064,1.3032,1.2977,1.2955,1.2897,1.2865,1.2821,1.2748,1.2728,1.2704,1.2661,1.267,1.2672,1.2669,1.267,1.2742,1.2653,1.2653,1.2653,1.2653,0,1.3479,1.3463,1.3355,1.3337,1.3315,1.3235,1.3214,1.3164,1.3103,1.3072,1.3,1.2972,1.2879,1.2839,1.2782,1.2747,1.2733,1.2701,1.2686,1.2707,1.2711,1.2687,1.2682,1.2654,1.2654,1.2654,1.2653,0,1.3575,1.3503,1.3465,1.3372,1.3349,1.3336,1.3256,1.3234,1.3178,1.3139,1.3125,1.3036,1.2985,1.2909,1.2834,1.2796,1.2769,1.2745,1.2792,1.2783,1.2796,1.2795,1.2855,1.2857,1.2769,1.277,1.2771,0,1.3615,1.36,1.3506,1.348,1.344,1.34,1.3366,1.3285,1.3253,1.3174,1.316,1.3104,1.3054,1.2975,1.2903,1.2845,1.2818,1.2843,1.2809,1.283,1.2816,1.2818,1.2815,1.2851,1.2853,1.2854,1.2855,0,1.3693,1.3657,1.3613,1.3554,1.3516,1.3466,1.3413,1.3395,1.3302,1.3269,1.3216,1.3178,1.3101,1.3045,1.2976,1.2929,1.2876,1.2866,1.2864,1.2886,1.2913,1.2896,1.2813,1.2865,1.2864,1.2863,1.2863,1.2862,1.376,1.3742,1.3673,1.3624,1.3575,1.3526,1.35,1.344,1.3395,1.3327,1.3281,1.323,1.316,1.3063,1.3018,1.2976,1.2953,1.2952,1.2951,1.2952,1.2959,1.292,1.2963,1.2962,1.2962,1.2962,1.2961,0,1.3833,1.3784,1.374,1.3667,1.3628,1.3582,1.3519,1.3489,1.3445,1.3385,1.3337,1.3274,1.3218,1.3141,1.3079,1.3059,1.3033,1.3045,1.3046,1.3035,1.2983,1.299,1.3068,1.3068,1.3068,1.3068,1.3068,1.3068,1.3867,1.3833,1.3789,1.3729,1.3678,1.3629,1.3596,1.355,1.3501,1.3434,1.3388,1.3338,1.3269,1.3201,1.3147,1.3125,1.3105,1.3125,1.3096,1.3049,1.3039,1.303,1.3035,1.3122,1.3122,1.315,1.3151,1.3151]}]]